Aérodrome :
LOGIN :

S'inscrire | Disclaimer

   EN    FR    IT 

 










Légende :    VFR   VFR Marginal   IFR   IFR Intensif   IFR Très Intensif
Visi : 
Plafond : 
>= 8 km
>= 3000ft
5 à 8 km
1000 à 3000 ft
1500m à 5 km
500 à 1000 ft
800 à 1500m
200 à 500 ft
< 800m
< 200 ft
Symboles :   Orages  Brouillard  Fortes neiges  Fortes précipitations  Vent > 20 kt
SIGMETs :   Divers  Orages  Givrage  Turbulence  Onde Orograph.  Cendres Volcan.







- Altitude de l'aérodrome : 19 ft
- Code IATA : LCY
- Voir les cartes d'approche


EGLC - London City

DERNIER METAR :
  • 161650Z AUTO 21009KT 150V290 9999 NCD 22/11 Q1017

METARs EXPIRÉS :
  • 161620Z AUTO 22011G23KT 190V260 9999 NCD 22/11 Q1017
  • 161550Z AUTO 21012KT 160V250 9999 NCD 22/10 Q1018
  • 161520Z AUTO 21012KT 180V240 9999 NCD 23/10 Q1018
  • 161450Z AUTO 23012G23KT 190V260 9999 FEW048 23/11 Q1018
  • 161420Z AUTO 24015KT 9999 NCD 22/10 Q1018

TAF TAF EGLC
Valide du 16 à 15h jusqu'au 16 à 21h UTC


161356Z 1615/1621 19011KT 9999 FEW040
ATIS : +44 20 7646 0224
Pas de NOTAMs connus pour ce terrain.



MET'MAP, la Météo Aéronautique d'un coup d'oeil ! - Copyright ORBIFLY Décembre 2007 - Disclaimer

ORBIFLY MET'MAP TEAM :

Programmation & Développement : Alexandra Zaïnal
Conception & Développement : Baudouin d'Aumeries
Co-Programmation & Développement : Marc-Olivier Méhu
Soutien technique & logistique : Manuel Goepfert

Contact : metmap@orbifly.com




SOURCES & CREDITS :

   NOAA